TimeCST,TemperatureF,Dew PointF,Humidity,Sea Level PressureIn,VisibilityMPH,Wind Direction,Wind SpeedMPH,Gust SpeedMPH,PrecipitationIn,Events,Conditions,WindDirDegrees,DateUTC
12:29 AM,33.8,32.0,93,29.87,2.5,SE,9.2,-,0.00,,Overcast,140,2013-01-11 06:29:00
12:43 AM,33.8,32.0,93,29.86,4.0,SE,11.5,-,0.00,,Overcast,140,2013-01-11 06:43:00
12:54 AM,34.0,32.0,92,29.90,2.5,SSE,10.4,-,0.01,Rain,Light Rain,150,2013-01-11 06:54:00
1:01 AM,33.8,32.0,93,29.86,4.0,SE,12.7,-,0.00,Rain,Light Rain,140,2013-01-11 07:01:00
1:54 AM,34.0,32.0,92,29.85,8.0,SE,12.7,-,0.00,Rain,Light Rain,130,2013-01-11 07:54:00
2:54 AM,34.0,33.1,96,29.81,10.0,SE,11.5,-,0.00,Rain,Light Rain,140,2013-01-11 08:54:00
3:54 AM,34.0,33.1,96,29.77,2.5,SSE,6.9,-,0.00,,Overcast,150,2013-01-11 09:54:00
4:05 AM,33.8,33.8,100,29.72,1.8,SSE,6.9,-,N/A,,Overcast,150,2013-01-11 10:05:00
4:15 AM,33.8,33.8,100,29.70,3.0,SE,10.4,-,N/A,,Overcast,140,2013-01-11 10:15:00
4:54 AM,34.0,34.0,100,29.73,9.0,SSE,5.8,-,N/A,,Overcast,150,2013-01-11 10:54:00
5:38 AM,33.8,33.8,100,29.68,2.0,SSE,6.9,-,N/A,,Overcast,150,2013-01-11 11:38:00
5:47 AM,33.8,33.8,100,29.68,1.5,SSE,4.6,-,N/A,,Overcast,150,2013-01-11 11:47:00
5:54 AM,34.0,34.0,100,29.72,1.5,SE,4.6,-,N/A,,Overcast,140,2013-01-11 11:54:00
6:16 AM,33.8,33.8,100,29.66,2.5,SE,3.5,-,N/A,,Overcast,130,2013-01-11 12:16:00
6:31 AM,33.8,33.8,100,29.67,1.2,Calm,Calm,-,N/A,,Overcast,0,2013-01-11 12:31:00
6:54 AM,34.0,34.0,100,29.70,0.8,Calm,Calm,-,N/A,,Mist,0,2013-01-11 12:54:00
7:43 AM,33.8,33.8,100,29.65,0.2,SSE,3.5,-,N/A,Fog,Fog,150,2013-01-11 13:43:00
7:54 AM,34.0,33.1,96,29.69,0.2,SE,3.5,-,N/A,Fog,Fog,140,2013-01-11 13:54:00
8:54 AM,34.0,34.0,100,29.66,0.2,SSE,4.6,-,N/A,Fog,Fog,150,2013-01-11 14:54:00
9:54 AM,35.1,34.0,96,29.65,0.2,Calm,Calm,-,N/A,Fog,Fog,0,2013-01-11 15:54:00
10:54 AM,36.0,35.1,97,29.64,0.2,Calm,Calm,-,N/A,Fog,Fog,0,2013-01-11 16:54:00
11:22 AM,35.6,35.6,100,29.58,0.5,SSE,3.5,-,N/A,Fog,Fog,150,2013-01-11 17:22:00
11:37 AM,35.6,35.6,100,29.58,2.0,South,5.8,-,N/A,,Overcast,190,2013-01-11 17:37:00
11:45 AM,37.4,35.6,93,29.58,4.0,SSW,3.5,-,N/A,,Overcast,200,2013-01-11 17:45:00
11:54 AM,37.0,36.0,96,29.62,5.0,SSW,6.9,-,N/A,,Overcast,200,2013-01-11 17:54:00
12:54 PM,37.0,36.0,96,29.61,10.0,SW,4.6,-,N/A,,Overcast,230,2013-01-11 18:54:00
2:54 PM,39.0,37.0,93,29.61,10.0,Calm,Calm,-,N/A,,Overcast,0,2013-01-11 20:54:00
3:54 PM,39.0,37.0,93,29.62,10.0,SE,3.5,-,N/A,,Overcast,130,2013-01-11 21:54:00
4:47 PM,37.4,37.4,100,29.58,7.0,SSE,5.8,-,N/A,,Overcast,150,2013-01-11 22:47:00
4:54 PM,37.9,37.0,97,29.63,3.0,SSE,5.8,-,N/A,,Overcast,160,2013-01-11 22:54:00
5:02 PM,37.4,37.4,100,29.59,2.5,SSE,6.9,-,N/A,,Overcast,150,2013-01-11 23:02:00
5:54 PM,37.9,37.0,97,29.63,4.0,SE,5.8,-,N/A,,Overcast,140,2013-01-11 23:54:00
6:11 PM,37.4,37.4,100,29.58,2.0,SE,5.8,-,N/A,,Overcast,140,2013-01-12 00:11:00
6:18 PM,37.4,37.4,100,29.58,1.2,SSE,4.6,-,N/A,,Overcast,150,2013-01-12 00:18:00
6:27 PM,37.4,37.4,100,29.58,0.5,SSE,6.9,-,N/A,Fog,Fog,150,2013-01-12 00:27:00
6:54 PM,37.0,37.0,100,29.61,0.5,SE,6.9,-,N/A,Fog,Fog,140,2013-01-12 00:54:00
7:35 PM,37.4,37.4,100,29.58,1.2,SSE,6.9,-,N/A,,Overcast,150,2013-01-12 01:35:00
7:50 PM,37.4,35.6,93,29.57,2.0,SSE,6.9,-,N/A,,Overcast,150,2013-01-12 01:50:00
7:54 PM,37.0,37.0,100,29.61,2.0,SSE,6.9,-,N/A,,Overcast,160,2013-01-12 01:54:00
8:13 PM,37.4,37.4,100,29.58,3.0,South,6.9,-,N/A,,Overcast,170,2013-01-12 02:13:00
8:22 PM,37.4,37.4,100,29.57,2.0,SSE,6.9,-,N/A,,Overcast,150,2013-01-12 02:22:00
8:40 PM,37.4,35.6,93,29.56,5.0,SSE,6.9,-,N/A,,Overcast,150,2013-01-12 02:40:00
9:16 PM,37.4,35.6,93,29.55,2.0,SE,8.1,-,N/A,,Overcast,140,2013-01-12 03:16:00
9:24 PM,37.4,35.6,93,29.55,1.5,SE,9.2,-,N/A,,Overcast,140,2013-01-12 03:24:00
9:54 PM,37.0,36.0,96,29.57,1.8,SE,8.1,-,N/A,,Overcast,140,2013-01-12 03:54:00
10:06 PM,37.4,35.6,93,29.52,2.0,SE,9.2,-,N/A,,Overcast,140,2013-01-12 04:06:00
10:13 PM,37.4,35.6,93,29.53,1.8,SSE,9.2,-,N/A,,Overcast,150,2013-01-12 04:13:00
10:54 PM,37.0,37.0,100,29.54,1.2,SE,6.9,-,N/A,,Overcast,140,2013-01-12 04:54:00
11:16 PM,37.4,37.4,100,29.49,0.8,SE,6.9,-,N/A,,Mist,140,2013-01-12 05:16:00
11:54 PM,37.9,37.9,100,29.52,0.5,South,8.1,-,N/A,Fog,Fog,170,2013-01-12 05:54:00